Date,TemperatureHighF,TemperatureAvgF,TemperatureLowF,DewpointHighF,DewpointAvgF,DewpointLowF,HumidityHigh,HumidityAvg,HumidityLow,PressureMaxIn,PressureMinIn,WindSpeedMaxMPH,WindSpeedAvgMPH,GustSpeedMaxMPH,PrecipitationSumIn
2013-1-1,41.0,36.6,27.9,27.9,21.4,9.4,64,54,45,29.91,29.71,22,11,22,0.04
2013-1-2,32.5,28.4,23.5,16.0,11.9,6.9,52,49,46,30.06,29.88,18,9,18,0.04
2013-1-3,28.8,26.1,21.7,14.2,12.0,7.7,59,55,52,30.12,29.94,14,7,14,0.04
2013-1-4,38.5,33.0,25.9,22.8,19.3,13.1,69,57,51,29.97,29.82,24,8,24,0.04
2013-1-5,42.4,34.6,27.7,25.1,20.9,0.0,73,57,50,30.21,29.88,23,7,23,0.04
2013-1-6,42.3,36.2,30.9,35.2,29.3,23.5,88,76,67,30.15,29.88,15,4,15,0.04
2013-1-7,41.9,35.8,24.8,31.4,25.0,17.6,80,65,49,30.36,29.94,15,5,15,0.04
2013-1-8,48.7,36.7,24.6,35.5,29.1,19.0,89,75,50,30.36,30.24,16,3,16,0.04
2013-1-9,48.2,39.4,27.3,40.5,33.1,24.2,94,79,57,30.33,30.03,20,4,20,0.04
2013-1-10,46.2,41.8,37.0,31.8,26.7,23.6,63,55,48,30.44,30.09,23,8,23,0.00
2013-1-11,46.0,39.8,31.3,45.2,32.5,22.1,97,76,58,30.44,30.06,13,3,13,0.29
2013-1-12,47.1,45.1,43.0,46.0,44.4,42.5,98,98,96,30.09,29.97,12,3,12,0.08
2013-1-13,48.7,44.6,41.0,48.2,43.8,40.5,98,97,95,30.12,29.94,9,2,9,0.87
2013-1-14,53.1,47.7,37.0,52.5,42.0,26.9,98,82,52,30.21,29.91,20,6,20,0.87
2013-1-15,40.1,37.7,35.1,34.2,29.5,24.4,94,73,57,30.27,30.12,11,4,11,0.87
2013-1-16,38.3,36.3,34.0,37.8,34.9,26.1,98,95,66,30.15,29.74,13,3,13,0.87
2013-1-17,42.8,38.4,33.4,36.0,30.8,18.2,98,75,53,30.03,29.82,19,5,19,0.87
2013-1-18,33.4,26.9,20.3,18.2,9.6,5.8,58,48,41,30.41,29.94,23,7,23,1.78
2013-1-19,48.9,38.6,20.1,34.7,26.3,7.9,73,62,47,30.36,29.88,20,5,20,0.00
2013-1-20,55.8,44.0,32.5,35.4,28.3,13.1,72,55,43,29.94,29.59,23,9,23,1.32
2013-1-21,35.2,30.5,26.6,26.4,15.4,7.5,88,55,42,30.06,29.71,18,5,18,0.00
2013-1-22,28.4,22.1,15.4,23.1,6.5,-2.4,81,51,44,30.09,29.71,28,12,28,0.00
2013-1-23,20.5,16.2,13.3,1.9,-1.7,-4.1,47,44,43,30.15,30.06,19,10,19,0.00
2013-1-24,21.2,16.9,12.4,2.2,-0.7,-4.4,51,45,41,30.27,30.06,27,11,27,0.00
2013-1-25,25.2,21.2,16.2,17.6,5.9,-0.8,77,52,45,30.33,29.94,20,6,20,0.00
2013-1-26,24.6,21.5,17.6,17.2,8.0,2.0,78,56,44,30.27,29.94,21,9,21,0.00
2013-1-27,31.1,25.0,19.9,11.8,7.5,2.8,56,47,37,30.41,30.24,22,8,22,0.00
2013-1-28,35.1,29.8,19.4,33.0,20.7,0.0,92,70,47,30.39,29.94,6,2,6,0.17
2013-1-29,41.4,36.9,33.8,38.4,33.9,31.7,95,89,77,30.12,29.94,9,3,9,1.95
2013-1-30,59.7,52.6,39.7,56.8,51.3,38.2,98,95,89,30.06,29.44,17,4,17,0.04
2013-1-31,57.9,46.2,31.5,57.4,34.6,13.1,98,66,44,29.68,29.09,33,12,33,0.58
2013-2-1,34.0,29.8,25.5,14.2,10.9,6.2,49,45,42,30.09,29.65,28,11,28,0.00
2013-2-2,31.8,27.4,23.9,20.2,9.8,5.7,76,48,42,30.21,30.00,23,7,23,0.00
2013-2-3,30.9,27.7,23.2,20.7,16.5,13.3,78,63,53,30.03,29.71,15,5,15,0.00
2013-2-4,32.0,28.2,25.3,20.2,12.4,7.5,70,51,44,29.91,29.71,23,10,23,0.00
2013-2-5,30.9,28.9,26.6,27.0,20.9,9.1,87,73,47,29.94,29.82,8,2,8,0.00
2013-2-6,37.9,32.8,28.6,29.3,22.9,5.2,89,68,35,30.27,29.82,18,6,18,0.00
2013-2-7,34.0,29.1,25.3,17.7,8.9,1.7,57,42,32,30.44,30.24,15,6,15,0.00
2013-2-8,35.8,33.3,30.9,33.1,30.1,16.8,98,89,55,30.30,29.59,23,7,23,0.04
2013-2-9,26.8,24.5,20.3,25.9,15.0,5.9,97,68,52,30.21,29.65,12,3,12,0.04
2013-2-10,28.9,23.9,18.7,15.2,10.5,5.1,69,56,53,30.41,30.18,11,4,11,0.00
2013-2-11,44.6,39.9,32.5,44.1,39.1,30.2,98,97,91,30.12,29.59,19,4,115,0.00
2013-2-12,40.5,37.6,34.5,38.3,30.8,26.9,98,78,59,29.91,29.62,22,9,22,0.00
2013-2-13,38.5,35.1,29.1,28.5,24.6,21.1,82,66,51,29.88,29.62,7,2,7,0.00
2013-2-14,39.0,33.8,28.4,31.3,27.6,22.6,95,79,53,29.97,29.68,10,3,10,0.00
2013-2-15,45.1,36.9,27.9,39.7,33.1,26.4,98,87,71,29.97,29.88,10,2,10,0.00
2013-2-16,38.8,35.2,30.7,31.1,26.2,19.6,88,70,54,29.88,29.62,20,8,20,0.00
2013-2-17,30.6,26.5,19.2,24.0,10.0,1.8,78,50,41,29.79,29.47,31,17,31,0.00
2013-2-18,30.6,24.3,18.9,12.6,7.7,2.1,53,48,45,30.15,29.79,30,12,30,0.00
2013-2-19,48.0,35.8,23.2,43.7,26.7,10.5,96,70,51,30.15,29.65,11,2,11,0.00
2013-2-20,30.0,27.7,26.1,12.2,10.5,9.4,50,48,45,29.85,29.76,27,16,27,0.00
2013-2-21,34.0,28.2,24.8,17.3,12.6,9.8,56,52,48,30.18,29.82,24,13,24,0.00
2013-2-22,39.2,32.5,26.2,25.2,20.0,13.0,71,60,51,30.33,30.18,23,6,23,0.00
2013-2-23,41.2,37.2,33.6,39.3,33.4,25.2,98,86,71,30.21,29.74,13,6,13,0.00
2013-2-24,41.2,37.4,33.3,40.1,34.9,28.5,98,91,74,29.88,29.65,15,7,15,0.00
2013-2-25,42.3,36.7,32.7,30.8,27.0,24.2,84,68,53,30.18,29.85,14,5,14,0.00
2013-2-26,44.8,38.3,35.2,36.3,31.1,24.8,97,76,52,30.27,29.94,16,3,16,0.00
2013-2-27,45.5,40.7,37.0,45.0,40.2,36.3,98,98,97,29.94,29.50,17,6,17,0.00
2013-2-28,49.5,43.8,38.1,46.2,40.6,36.7,98,89,74,29.59,29.47,9,2,9,0.00
2013-3-1,46.6,40.0,34.9,39.3,34.5,27.1,96,82,56,29.65,29.50,13,6,13,0.00
2013-3-2,42.8,38.0,34.7,27.8,25.8,24.0,70,61,52,29.68,29.59,13,7,13,0.00
2013-3-3,35.1,33.1,31.6,24.7,22.7,20.9,67,65,63,29.65,29.59,13,7,13,0.00
2013-3-4,41.0,36.5,31.8,26.4,21.9,18.4,60,55,52,29.79,29.62,22,12,22,0.00
2013-3-5,43.0,37.0,31.8,27.5,23.2,19.2,64,57,51,29.94,29.76,20,8,20,0.04
2013-3-6,43.0,39.6,36.1,37.0,31.9,29.2,88,74,60,29.88,29.79,30,10,115,0.04
2013-3-7,41.2,36.0,32.7,32.9,30.1,26.6,98,80,57,29.94,29.79,30,12,30,0.04
2013-3-8,38.7,34.2,32.5,34.8,32.1,24.9,98,93,59,30.06,29.85,23,8,23,0.04
2013-3-9,37.9,37.1,36.1,25.3,23.6,22.4,60,58,57,30.06,30.03,19,10,19,0.00
2013-3-10,43.9,36.2,31.8,33.7,30.0,26.0,89,79,63,30.36,30.24,11,3,11,0.00
2013-3-11,55.2,41.5,31.3,46.5,37.4,28.5,97,86,68,30.27,30.06,14,4,14,0.08
2013-3-12,53.4,50.2,43.2,51.8,48.3,42.1,98,93,84,30.21,29.65,28,8,28,0.00
2013-3-13,47.5,41.3,36.1,43.4,33.7,26.1,95,75,48,29.80,29.68,16,8,16,0.26
2013-3-14,39.0,35.1,31.3,31.6,20.5,13.2,80,56,43,29.85,29.76,26,12,26,0.26
2013-3-15,43.5,36.4,29.5,25.8,17.2,9.9,55,45,41,29.88,29.65,24,9,24,0.00
2013-3-16,40.6,35.9,33.1,29.7,23.9,17.6,83,63,41,29.85,29.68,12,4,12,0.00
2013-3-17,37.9,32.7,30.0,29.1,19.3,14.1,81,58,44,30.06,29.82,19,8,19,0.00
2013-3-18,37.9,33.6,25.5,32.4,17.1,6.2,96,53,39,30.36,30.00,20,6,115,0.00
2013-3-19,42.1,36.6,33.4,40.1,35.6,32.4,98,96,89,30.03,29.56,25,7,25,0.70
2013-3-20,41.2,35.0,29.8,34.6,23.4,18.5,94,63,48,29.82,29.71,27,9,27,0.16
2013-3-21,38.7,34.5,30.7,27.7,23.6,16.6,84,65,53,29.79,29.59,15,6,15,0.00
2013-3-22,41.5,34.9,28.8,24.1,18.6,12.7,56,51,46,29.79,29.62,25,10,25,0.00
2013-3-23,37.8,35.4,33.8,23.3,20.7,18.0,57,55,47,29.82,29.74,22,12,22,0.00
2013-3-24,45.5,37.3,33.6,27.8,21.0,17.4,71,52,44,29.85,29.65,20,9,20,0.00
2013-3-25,43.0,37.0,34.5,34.0,27.8,23.7,95,69,53,29.71,29.38,24,4,24,0.00
2013-3-26,37.2,36.7,36.1,31.8,28.6,27.1,83,72,69,29.56,29.47,16,6,16,0.00
2013-3-27,51.6,44.7,34.0,31.0,28.3,23.8,69,53,42,29.85,29.74,18,8,18,0.00
2013-3-28,51.4,41.4,36.7,36.3,31.1,26.4,76,67,54,30.00,29.82,15,6,15,0.00
2013-3-29,41.5,40.4,38.1,34.2,33.1,30.7,76,75,73,30.03,30.00,10,5,10,0.00
2013-3-30,54.1,45.1,37.0,35.1,29.9,24.1,76,57,37,30.09,29.97,14,6,14,0.00
2013-3-31,59.7,42.6,30.9,46.2,34.2,25.7,96,74,41,30.09,29.59,24,4,24,0.08
2013-4-1,59.4,46.3,37.6,50.8,42.7,21.0,98,88,50,29.79,29.56,22,7,22,0.04
2013-4-2,42.1,36.9,32.9,21.1,17.8,15.1,51,46,39,30.00,29.79,26,10,26,0.00
2013-4-3,43.7,38.4,32.7,21.8,17.2,13.1,44,42,40,30.09,29.94,24,13,24,0.00
2013-4-4,44.1,40.0,38.8,30.1,27.1,23.4,69,60,45,30.12,30.06,10,3,14,0.00
2013-4-5,54.7,45.7,39.4,38.9,31.1,22.5,84,59,37,30.06,29.62,22,4,22,0.00
2013-4-6,46.0,38.9,32.2,23.1,18.3,12.0,66,44,25,30.30,29.85,22,7,22,0.00
2013-4-7,57.0,42.2,29.1,39.0,30.5,21.9,86,65,46,30.27,30.00,15,3,15,1.08
2013-4-8,65.5,52.2,41.7,47.2,43.3,39.0,94,75,43,30.03,29.94,12,4,12,1.08
2013-4-9,72.7,55.5,48.0,56.9,43.2,35.5,95,67,37,29.97,29.82,20,5,20,1.08
2013-4-10,66.7,52.5,46.4,52.2,44.5,40.4,93,75,55,29.94,29.76,39,5,39,0.29
2013-4-11,62.2,52.4,45.3,52.3,47.6,41.5,97,85,61,29.94,29.74,16,4,16,0.09
2013-4-12,51.3,41.6,39.7,41.5,37.8,27.9,98,88,52,29.97,29.65,30,9,32,0.79
2013-4-13,40.5,39.7,38.7,39.7,38.8,37.1,97,96,94,29.76,29.65,16,8,16,0.05
2013-4-14,52.2,46.5,38.5,36.6,29.5,25.4,93,51,48,30.15,29.97,13,6,13,0.05
2013-4-15,57.7,48.0,37.4,37.7,34.4,25.6,86,60,46,30.33,30.15,13,3,13,0.05
2013-4-16,61.0,46.3,40.3,51.1,41.9,37.3,95,85,60,30.33,30.06,22,4,22,0.00
2013-4-17,61.0,55.2,51.4,53.7,49.7,32.9,91,83,40,30.21,30.03,10,4,10,0.03
2013-4-18,63.1,52.4,41.7,50.4,40.3,35.7,90,66,38,30.30,30.06,20,7,20,0.00
2013-4-19,72.0,61.1,53.2,63.9,58.3,50.4,98,91,69,30.09,29.68,12,4,12,0.09
2013-4-20,61.2,54.0,46.0,60.6,48.5,30.4,98,84,47,30.15,29.62,24,7,24,0.42
2013-4-21,49.3,41.8,36.5,30.4,22.7,18.9,52,47,41,30.50,30.15,21,10,21,0.03
2013-4-22,51.6,47.0,38.8,35.4,32.0,27.6,79,57,41,30.59,30.41,22,6,22,0.00
2013-4-23,49.5,44.3,40.5,44.3,39.2,30.4,96,83,63,30.44,29.97,20,7,20,0.00
2013-4-24,63.9,50.9,43.9,50.3,44.3,40.3,96,79,55,29.97,29.82,14,6,14,0.00
2013-4-25,59.9,53.8,45.9,51.2,40.9,30.0,95,65,38,30.15,29.82,17,6,17,0.00
2013-4-28,64.8,56.4,44.2,47.8,40.7,35.0,97,58,42,30.27,30.18,17,6,17,0.00
2013-4-29,51.3,50.7,49.3,46.1,45.3,44.1,85,82,77,30.21,30.12,7,2,7,0.00
2013-5-2,67.1,58.6,45.3,52.5,48.4,40.9,97,71,47,30.39,30.24,13,4,13,0.00
2013-5-3,61.5,52.8,45.1,45.7,40.7,35.1,90,65,47,30.41,30.30,15,4,15,0.00
2013-5-4,63.7,51.4,43.9,47.9,43.3,37.7,96,76,48,30.30,30.18,18,4,18,2.83
2013-5-5,59.2,49.8,40.5,44.7,40.4,36.5,92,72,50,30.24,30.15,17,5,17,0.00
2013-5-6,46.9,45.6,43.5,44.2,42.2,40.1,92,88,85,30.21,30.15,6,2,6,2.83
2013-5-8,61.7,58.2,43.5,58.4,56.5,40.5,96,94,89,30.15,29.94,9,3,9,0.08
2013-5-9,66.2,57.7,54.7,63.9,56.4,53.8,98,95,85,30.00,29.82,11,2,11,0.08
2013-5-10,75.0,62.1,49.5,62.5,55.8,48.8,98,82,54,29.94,29.85,13,3,13,0.00
2013-5-11,66.9,61.3,57.6,63.5,59.1,55.0,98,93,86,29.85,29.65,13,3,13,0.25
2013-5-12,60.8,58.3,52.2,60.2,53.7,35.6,98,87,52,29.82,29.59,14,3,14,0.00
2013-5-13,52.2,49.4,46.6,35.6,32.5,28.3,57,52,46,30.00,29.82,19,8,19,0.00
2013-5-14,47.5,45.8,44.4,29.8,28.6,27.8,55,51,47,30.03,29.97,15,7,15,0.00
2013-5-15,66.4,59.9,44.8,54.5,49.3,29.6,94,69,45,30.03,29.65,18,4,18,0.04
2013-5-16,68.2,54.7,49.1,53.1,50.0,44.2,96,86,46,29.76,29.65,10,2,10,0.04
2013-5-17,60.3,57.8,56.5,49.8,44.4,39.9,74,61,49,29.91,29.76,12,4,12,0.00
2013-5-18,74.7,64.0,51.6,54.2,50.4,46.7,86,63,45,30.27,30.18,15,3,15,0.00
2013-5-19,55.0,53.9,52.7,50.7,49.5,47.8,89,85,82,30.24,30.21,20,1,20,0.00
2013-5-20,65.5,65.0,55.2,64.3,63.4,50.8,96,95,85,29.91,29.88,6,3,6,0.21
2013-5-21,64.8,61.1,59.4,63.6,60.0,58.2,98,96,95,29.94,29.85,4,1,4,0.00
2013-5-22,72.0,60.7,54.9,66.0,58.7,54.1,98,93,73,29.91,29.79,17,5,17,0.00
2013-5-23,64.8,64.1,63.5,63.5,62.9,62.0,97,96,93,29.85,29.74,13,4,13,0.33
2013-5-24,63.9,63.2,62.2,63.0,62.4,61.7,98,97,96,29.74,29.59,9,3,9,0.13
2013-5-25,62.8,48.7,48.2,61.9,41.6,39.2,97,76,72,29.82,29.65,23,10,23,4.36
2013-5-26,63.3,54.5,47.8,46.4,41.6,39.1,75,63,49,29.97,29.79,20,11,20,4.36
2013-5-27,60.6,56.1,54.3,46.4,42.9,38.4,74,62,48,30.09,29.97,6,6,6,4.36
2013-5-28,54.1,49.9,47.3,52.1,46.4,44.4,94,88,74,30.18,30.09,6,6,6,4.36
2013-5-29,74.7,65.8,57.6,69.2,62.8,56.7,97,90,78,30.06,29.94,18,2,18,0.29
2013-5-30,86.2,69.3,60.6,73.3,63.7,59.4,98,84,57,30.06,29.97,10,3,10,4.65
2013-5-31,88.7,75.0,61.7,75.2,66.2,60.0,96,76,53,30.06,29.91,10,2,10,0.00
2013-6-1,87.4,70.0,63.7,74.2,64.6,61.5,95,84,60,29.94,29.82,12,3,12,0.00
2013-6-2,68.5,66.7,64.8,64.7,63.5,62.4,94,90,87,29.85,29.82,12,4,12,0.00
2013-6-3,74.7,67.8,64.2,71.5,65.9,62.8,97,94,86,29.79,29.71,10,2,10,0.33
2013-6-4,69.8,63.6,53.8,64.0,46.8,38.8,96,55,45,30.03,29.79,12,6,12,0.00
2013-6-5,71.8,61.7,53.1,55.8,50.1,45.1,91,68,42,30.15,30.03,13,3,13,4.98
2013-6-6,75.2,63.7,54.1,64.8,56.1,51.2,97,78,49,30.12,29.97,18,5,115,5.02
2013-6-7,66.9,59.7,58.1,66.3,58.4,55.5,98,95,86,29.97,29.59,19,7,19,3.65
2013-6-8,74.7,65.7,55.6,67.6,63.3,55.0,98,92,75,29.97,29.44,21,6,21,8.92
2013-6-9,76.8,68.3,58.3,64.8,60.7,57.2,97,78,57,30.12,29.97,8,2,8,8.92
2013-6-10,76.1,63.2,59.7,69.8,61.2,58.1,98,93,75,30.12,29.82,20,4,20,1.95
2013-6-11,78.3,69.7,61.7,72.8,67.3,61.1,98,92,75,29.82,29.53,12,3,12,0.25
2013-6-12,71.6,64.4,62.1,60.8,58.0,52.1,88,80,57,29.82,29.59,15,7,15,11.12
2013-6-13,64.4,59.6,54.1,62.6,56.8,51.8,98,91,69,29.76,29.44,25,6,25,0.50
2013-6-14,67.1,59.2,53.8,58.0,54.4,51.0,98,85,65,29.79,29.44,22,7,22,12.03
2013-6-15,74.7,66.4,58.8,63.3,57.4,50.1,97,76,44,29.91,29.76,10,4,10,12.03
2013-6-16,80.2,68.4,57.9,66.7,61.6,55.9,96,80,50,29.91,29.71,13,2,13,12.03
2013-6-17,83.5,71.4,61.9,72.2,66.2,60.3,97,85,62,29.85,29.76,13,2,13,0.21
2013-6-18,81.9,68.6,60.4,73.0,65.1,59.6,98,90,69,29.85,29.76,14,3,14,0.54
2013-6-19,73.6,67.6,58.5,60.6,56.6,49.4,98,70,46,30.09,29.76,14,4,14,0.00
2013-6-20,76.8,65.6,54.5,59.6,54.2,50.9,95,69,52,30.21,30.06,10,3,10,0.00
2013-6-21,79.9,70.4,57.6,64.4,57.7,49.4,94,66,48,30.24,30.15,9,3,9,0.00
2013-6-22,80.1,68.7,57.4,67.2,60.7,55.3,97,77,53,30.21,30.06,12,2,12,0.00
2013-6-23,86.2,68.2,61.3,72.5,64.5,59.9,96,89,60,30.12,30.00,12,2,12,0.00
2013-6-24,90.1,78.6,69.4,77.2,71.2,64.7,97,79,55,30.00,29.82,7,2,8,0.00
2013-6-25,88.3,73.1,66.0,75.8,68.3,63.9,95,86,60,30.09,29.71,10,1,10,0.00
2013-6-26,86.4,77.2,69.8,74.0,69.8,67.1,93,79,62,29.79,29.68,10,3,10,0.00
2013-6-27,83.7,74.3,68.5,75.3,70.5,67.2,97,88,73,29.79,29.59,20,4,20,0.17
2013-6-28,84.2,75.9,70.7,78.1,72.3,69.8,97,89,72,29.59,29.47,15,5,15,0.00
2013-6-29,72.5,71.3,70.2,71.0,70.0,68.8,96,96,95,29.50,29.44,7,3,8,0.00
2013-6-30,80.4,73.8,69.8,76.2,71.0,68.5,97,91,78,29.85,29.65,13,4,13,0.12
2013-7-1,79.3,74.3,71.4,76.6,72.7,70.5,97,95,88,30.03,29.85,11,4,11,0.04
2013-7-2,81.0,74.7,71.8,76.9,72.4,70.3,96,92,82,30.12,30.00,12,3,12,0.00
2013-7-3,86.9,74.0,70.7,79.1,71.5,69.5,97,92,74,30.18,30.09,11,2,11,0.04
2013-7-4,88.2,78.4,72.3,80.0,74.5,71.1,97,88,71,30.18,30.06,10,2,10,0.04
2013-7-5,90.7,79.6,73.0,80.4,73.8,70.9,94,83,66,30.15,30.00,9,3,10,0.05
2013-7-6,90.0,81.2,74.3,78.7,74.2,71.4,93,80,65,30.06,29.94,10,3,10,0.00
2013-7-7,92.3,81.3,74.7,80.5,73.8,70.6,93,79,53,29.97,29.82,9,2,9,0.00
2013-7-8,87.8,80.2,71.8,75.4,71.1,64.4,91,75,57,29.97,29.85,8,3,8,0.00
2013-7-9,72.3,70.4,69.3,70.5,68.6,67.6,96,94,91,29.97,29.94,3,2,3,0.00
2013-7-10,87.8,78.6,71.2,79.2,73.9,69.7,96,86,72,29.97,29.74,13,3,13,0.00
2013-7-11,81.0,75.8,71.4,77.7,73.4,69.8,96,93,85,29.85,29.71,3,1,3,0.24
2013-7-12,78.3,72.1,67.6,71.2,68.0,65.9,95,87,75,30.06,29.85,10,4,10,0.00
2013-7-13,80.8,73.5,67.8,77.7,71.7,66.5,98,94,88,30.21,30.06,10,6,10,0.17
2013-7-14,87.4,78.8,72.7,79.7,74.6,71.8,97,88,68,30.24,30.12,6,2,6,0.00
2013-7-15,89.1,76.7,72.7,79.5,73.2,71.2,96,90,69,30.15,30.03,12,2,12,0.00
2013-7-16,88.0,79.7,72.3,77.6,72.4,69.2,95,80,62,30.12,30.03,6,2,6,0.00
2013-7-17,90.1,79.4,71.4,80.7,73.7,68.8,96,84,67,30.12,29.97,13,2,13,0.00
2013-7-18,91.2,80.0,75.0,79.6,74.1,70.4,90,83,66,29.97,29.94,6,2,6,0.00
2013-7-19,93.4,82.6,77.2,82.9,76.6,73.8,93,83,65,29.91,29.71,14,2,14,0.00
2013-7-20,92.1,82.9,76.3,79.2,75.5,72.5,94,79,60,29.79,29.65,11,2,11,0.04
2013-7-21,86.0,77.3,71.1,73.0,68.2,63.9,94,75,53,29.91,29.76,15,3,15,0.00
2013-7-22,85.6,77.1,71.1,77.3,73.4,68.9,96,89,73,29.91,29.76,13,4,13,0.00
2013-7-23,87.6,78.1,69.6,79.9,74.3,68.2,97,89,72,29.76,29.50,12,3,12,0.71
2013-7-24,84.7,74.9,69.3,78.3,67.9,59.5,98,79,67,29.85,29.53,12,4,12,0.00
2013-7-25,70.5,65.2,60.4,61.1,59.6,56.5,98,83,67,30.00,29.85,15,6,15,0.33
2013-7-26,70.7,65.6,60.3,68.4,63.9,59.6,98,94,83,29.97,29.85,15,4,15,0.29
2013-7-27,81.9,71.9,65.8,72.8,67.9,65.3,98,88,68,30.00,29.88,14,3,14,0.00
2013-7-28,82.0,73.2,66.6,73.8,69.1,65.7,98,88,69,29.91,29.85,8,2,10,0.00
2013-7-29,84.0,76.0,69.1,77.8,71.9,66.3,97,88,72,29.97,29.88,12,2,12,0.00
2013-7-30,78.6,71.5,65.1,65.5,60.9,57.1,92,70,55,30.06,29.97,11,3,11,0.00
2013-7-31,80.8,71.6,63.3,65.0,62.2,57.6,93,74,46,30.06,29.94,10,2,10,0.00
2013-8-1,81.1,70.7,64.0,73.4,66.9,62.6,97,88,66,29.97,29.76,15,4,15,0.12
2013-8-2,68.9,68.3,67.8,68.0,67.3,66.8,97,96,96,29.79,29.74,10,6,10,0.00
2013-8-3,75.4,70.2,66.0,70.2,66.6,64.4,96,88,73,29.82,29.76,6,2,6,0.00
2013-8-4,78.6,71.5,64.8,66.8,60.7,52.2,94,70,52,29.85,29.74,10,3,10,0.00
2013-8-5,74.5,67.5,60.1,56.1,52.7,48.3,86,61,42,30.00,29.82,13,3,13,0.00
2013-8-6,79.9,67.8,57.6,64.9,59.2,55.3,96,76,48,30.06,29.94,15,3,15,0.00
2013-8-7,80.4,69.3,58.3,67.3,62.0,56.1,97,79,55,30.12,30.00,16,5,16,0.00
2013-8-8,82.9,75.2,70.3,73.9,70.0,65.6,93,84,70,30.03,29.94,10,4,12,0.00
2013-8-9,81.5,74.7,72.9,77.3,72.6,70.7,95,93,85,30.00,29.74,13,5,13,0.03
2013-8-10,82.0,74.8,69.3,72.7,67.2,58.8,97,79,58,29.97,29.76,10,4,10,0.00
2013-8-11,77.2,70.4,63.5,62.5,54.1,48.1,86,57,43,30.06,29.94,10,3,10,0.00
2013-8-12,74.7,70.5,65.5,71.9,68.4,61.4,97,93,86,29.97,29.82,5,0,5,0.25
2013-8-13,72.9,68.2,64.4,72.0,67.3,63.5,98,97,94,29.88,29.62,17,2,17,0.59
2013-8-14,72.9,68.3,63.0,68.0,55.8,49.5,98,66,49,29.94,29.65,15,4,15,0.00
2013-8-15,75.0,67.5,62.1,59.1,53.6,49.4,78,62,43,30.06,29.94,8,2,8,0.00
2013-8-16,77.2,68.2,60.8,64.7,58.0,51.2,94,72,42,30.15,30.03,11,1,11,0.00
2013-8-17,64.2,60.8,58.8,62.5,58.6,56.7,94,92,90,30.18,30.15,4,0,4,0.00
2013-8-18,77.2,67.4,60.4,68.5,61.0,57.9,96,81,56,30.18,30.03,6,3,6,0.00
2013-8-19,78.8,69.2,58.8,69.1,63.1,57.0,94,82,64,30.06,29.94,7,2,7,0.00
2013-8-20,81.9,73.5,66.6,69.3,64.4,58.6,94,75,47,30.06,29.94,6,2,6,0.00
2013-8-21,83.8,73.7,63.1,73.0,65.7,58.7,97,79,43,30.09,29.97,9,1,9,0.00
2013-8-22,81.5,73.1,69.1,76.2,70.3,67.6,96,91,81,29.97,29.79,10,2,10,0.00
2013-8-23,79.5,72.3,62.8,69.6,63.6,55.8,97,76,46,30.03,29.76,13,3,13,0.00
2013-8-24,76.5,66.8,58.5,60.8,55.6,51.2,92,69,43,30.27,30.03,12,3,12,0.00
2013-8-25,77.7,66.8,54.0,65.0,56.9,51.0,97,74,42,30.30,30.12,10,2,10,0.00
2013-8-26,82.6,71.9,67.1,68.7,63.2,56.8,96,75,60,30.15,29.82,13,2,13,0.00
2013-8-27,79.9,72.5,69.1,73.7,70.0,67.6,98,92,76,29.88,29.71,14,3,14,0.00
2013-8-28,82.4,73.2,66.4,75.7,70.2,65.5,98,91,77,29.85,29.76,58,2,58,0.00
2013-8-29,76.3,70.1,65.3,69.4,66.2,61.5,97,88,74,29.97,29.82,13,4,13,0.00
2013-8-30,79.0,70.0,61.0,71.2,66.0,59.0,96,88,74,29.97,29.76,7,2,7,0.00
2013-8-31,82.4,75.0,70.2,75.5,71.3,68.8,96,89,76,29.82,29.71,10,3,10,0.00
2013-9-1,81.9,74.6,72.0,77.1,72.6,70.7,97,94,83,29.82,29.74,12,3,12,0.04
2013-9-2,80.8,76.9,71.1,77.6,74.1,69.9,96,91,85,29.79,29.65,10,3,10,0.00
2013-9-3,73.9,70.6,68.7,73.0,69.7,67.5,98,97,96,29.74,29.62,8,1,8,0.09
2013-9-4,75.6,69.8,64.8,63.4,59.8,55.3,86,71,50,29.91,29.76,8,3,8,0.00
2013-9-5,75.2,68.6,62.8,67.7,55.1,42.2,91,65,40,30.06,29.82,14,4,14,0.00
2013-9-6,68.5,62.1,54.0,49.4,44.2,40.7,84,52,40,30.18,30.06,10,3,10,0.00
2013-9-7,73.9,62.5,51.1,55.5,51.4,48.2,93,70,46,30.06,29.85,11,2,11,0.00
2013-9-8,77.5,70.0,60.6,66.0,59.4,39.9,86,70,44,30.00,29.71,15,4,15,0.00
2013-9-9,69.1,60.9,52.5,55.1,46.6,39.4,88,60,46,30.18,30.00,11,2,11,0.00
2013-9-10,77.2,71.1,58.8,72.7,67.5,55.1,95,89,79,30.12,29.97,10,4,10,0.08
2013-9-11,86.9,74.5,70.5,78.8,71.3,69.0,96,90,70,30.03,29.91,12,3,12,0.00
2013-9-12,81.0,74.2,69.1,75.7,70.9,67.7,97,90,79,29.94,29.62,10,4,14,0.29
2013-9-13,75.7,70.7,67.5,71.0,67.2,58.9,98,89,71,29.68,29.53,13,2,13,0.04
2013-9-14,67.3,61.5,56.5,55.0,51.4,46.8,82,70,58,30.03,29.71,11,4,11,0.00
2013-9-15,67.5,60.7,55.2,57.1,50.4,46.7,91,70,49,30.12,30.00,7,2,7,0.00
2013-9-16,67.8,63.0,56.5,61.9,54.7,38.1,93,76,49,30.15,29.94,21,4,21,0.00
2013-9-17,60.6,51.5,45.5,43.6,37.1,34.2,84,58,45,30.36,30.15,19,6,19,0.00
2013-9-18,66.6,55.3,43.2,50.7,45.4,39.4,93,72,43,30.27,30.12,6,1,6,0.00
2013-9-19,70.9,60.8,49.1,61.5,53.4,46.9,97,78,47,30.12,30.00,8,2,8,0.00
2013-9-20,73.4,62.1,51.8,64.7,57.0,50.4,98,85,60,30.06,29.94,13,2,13,0.00
2013-9-21,75.9,65.8,54.7,69.3,62.7,52.9,98,90,77,29.97,29.68,18,4,18,0.00
2013-9-22,72.9,65.7,56.7,68.0,57.1,39.2,98,76,49,29.82,29.59,15,5,15,0.04
2013-9-23,62.4,57.0,51.8,44.1,41.6,39.4,68,57,48,29.97,29.79,20,5,20,0.00
2013-9-24,65.7,60.2,49.6,50.9,44.4,39.4,72,57,45,30.30,29.76,15,5,15,0.00
2013-9-25,67.3,56.3,48.6,53.7,46.4,42.4,92,71,48,29.88,29.79,8,1,8,0.00
2013-9-26,67.8,60.3,50.2,57.3,51.9,47.2,91,75,52,30.03,22.68,10,2,10,0.00
2013-9-27,66.7,59.5,49.3,55.3,51.8,46.8,95,77,54,30.18,30.00,13,3,13,0.00
2013-9-28,70.5,60.4,53.4,59.5,53.5,49.7,95,80,52,30.24,30.15,13,2,13,0.00
2013-9-29,65.7,56.4,50.7,56.8,51.4,44.4,97,85,47,30.15,30.00,13,2,13,0.00
2013-9-30,66.9,60.8,56.8,59.3,55.0,47.4,96,83,50,30.03,29.88,9,2,115,0.00
2013-10-1,72.7,64.4,57.0,60.6,57.8,55.5,97,80,57,29.91,29.82,7,2,7,0.00
2013-10-2,74.8,65.8,56.8,65.7,61.1,54.2,98,86,65,29.91,29.82,12,2,12,0.00
2013-10-3,72.9,66.8,62.2,63.6,54.3,48.1,93,65,50,30.03,29.91,7,2,7,0.00
2013-10-4,80.1,70.6,57.7,69.7,64.6,53.2,96,82,66,30.03,29.88,9,2,9,0.00
2013-10-5,70.9,65.5,62.1,64.2,62.0,60.6,96,89,74,30.06,29.94,9,2,9,0.00
2013-10-8,66.0,61.4,57.7,54.7,44.2,38.9,77,54,42,30.24,29.85,17,5,17,0.00
2013-10-9,63.3,57.5,53.2,48.6,44.5,37.6,75,62,50,30.33,30.21,19,4,19,0.00
2013-10-10,65.7,59.4,54.0,58.5,53.2,46.8,87,80,74,30.21,30.00,15,4,15,0.00
2013-10-11,70.0,63.6,59.7,60.0,56.7,41.4,90,79,49,30.06,29.94,15,4,15,0.00
2013-10-12,68.2,61.4,57.0,57.0,48.5,36.6,86,64,44,30.21,30.00,20,5,20,0.00
2013-10-13,61.2,56.0,47.8,52.0,49.1,44.5,91,78,63,30.33,30.18,13,4,13,0.00
2013-10-14,61.7,52.9,45.7,51.3,48.1,42.5,93,84,64,30.30,30.18,11,1,11,0.00
2013-10-15,66.0,54.7,44.6,54.9,47.1,41.6,98,78,46,30.21,30.06,14,2,14,0.00
2013-10-16,67.6,60.6,55.8,59.8,55.5,51.2,94,84,73,30.06,29.85,10,2,10,0.00
2013-10-17,71.1,61.9,56.5,64.2,59.1,55.0,97,91,71,29.85,29.68,9,1,9,0.00
2013-10-18,65.5,62.3,56.8,63.1,51.4,42.2,96,69,52,29.91,29.62,18,6,18,0.00
2013-10-19,66.6,57.2,46.0,55.9,46.9,40.8,93,70,49,29.91,29.68,12,2,12,0.00
2013-10-20,60.6,57.0,54.0,57.6,43.1,36.0,95,61,45,29.97,29.65,18,6,18,0.00
2013-10-21,62.8,51.7,42.6,49.9,40.7,36.9,89,68,46,30.09,29.94,19,2,19,0.00
2013-10-22,66.9,55.9,47.3,55.5,48.0,42.5,96,77,52,29.94,29.68,57,2,57,0.00
2013-10-23,54.0,50.1,46.9,42.5,35.0,31.0,71,56,47,29.74,29.53,11,3,11,0.00
2013-10-24,55.6,49.6,45.5,36.5,32.1,27.3,65,51,42,29.91,29.65,15,6,17,0.00
2013-10-25,52.5,48.1,44.8,32.9,30.0,27.8,62,50,42,30.12,29.88,17,6,17,0.00
2013-10-26,54.9,47.6,40.1,33.6,31.6,28.4,72,55,42,30.12,29.88,15,4,15,0.00
2013-10-27,56.7,51.9,45.7,36.5,33.4,29.5,62,49,41,30.03,29.76,15,6,15,0.00
2013-10-28,58.5,50.6,46.8,37.2,31.6,29.0,53,48,43,30.24,30.00,15,5,15,0.00
2013-10-29,52.9,47.0,35.6,32.1,28.8,25.5,77,49,41,30.33,30.24,11,2,11,0.00
2013-10-30,60.8,49.6,36.3,49.2,41.5,29.2,87,74,57,30.27,30.12,9,1,9,0.00
2013-10-31,66.7,57.8,45.9,61.5,54.0,42.2,95,88,77,30.18,29.76,13,3,13,0.00
2013-11-1,67.5,63.1,58.6,63.9,60.0,56.1,94,90,81,29.79,29.50,20,4,20,0.00
2013-11-2,63.5,58.1,53.1,57.5,50.9,43.6,96,77,63,29.68,29.56,11,2,11,0.00
2013-11-3,56.5,47.9,37.6,44.8,32.5,18.1,75,56,42,30.33,29.68,20,8,20,0.00
2013-11-4,44.6,36.1,31.8,26.8,19.3,16.9,69,51,39,30.59,30.33,20,3,20,0.04
2013-11-5,52.3,43.5,36.1,38.9,32.7,25.6,83,66,51,30.59,30.41,12,2,12,0.00
2013-11-6,59.9,49.7,38.8,54.3,44.8,35.4,97,84,63,30.44,30.00,11,2,11,0.00
2013-11-7,64.8,56.5,45.1,62.8,52.4,29.8,98,87,55,30.56,29.65,21,6,21,0.25
2013-11-8,50.2,45.3,41.7,31.4,28.3,24.1,58,51,44,30.09,29.82,20,9,20,0.00
2013-11-9,49.1,44.3,41.0,35.8,27.7,23.3,66,52,47,30.21,29.94,13,4,15,0.00
2013-11-10,59.0,53.4,45.5,38.9,35.9,29.6,70,52,43,29.97,29.71,27,9,27,0.00
2013-11-11,52.0,48.7,44.8,36.8,30.2,26.6,58,49,45,30.12,29.91,23,7,23,0.00
2013-11-12,51.4,38.7,32.2,35.5,24.1,15.4,91,57,47,30.18,29.82,27,10,27,0.00
2013-11-13,37.6,33.0,29.1,19.5,15.5,13.3,52,48,41,30.30,30.15,20,9,20,0.00
2013-11-14,50.2,40.8,31.8,25.9,20.2,14.2,52,44,36,30.18,30.06,22,6,22,0.00
2013-11-15,57.2,45.2,37.9,38.0,30.3,19.3,85,57,40,30.18,30.09,6,3,6,0.00
2013-11-16,57.2,48.3,40.5,44.3,38.7,33.6,88,70,54,30.27,30.15,3,3,3,0.00
2013-11-17,63.3,55.7,40.6,59.3,53.5,37.4,97,93,80,30.21,29.76,13,7,13,0.00
2013-11-18,61.9,56.9,48.7,61.3,45.1,31.9,98,66,47,30.18,29.53,17,8,17,0.42
2013-11-19,51.4,41.5,35.1,31.9,22.4,17.4,50,46,42,30.27,29.65,20,11,20,0.00
2013-11-20,40.8,35.3,31.3,19.5,16.5,13.9,50,46,40,30.53,30.24,18,6,18,0.00
2013-11-21,47.8,39.9,32.5,35.6,25.9,16.1,76,58,48,30.53,30.36,11,2,11,0.00
2013-11-22,54.5,50.0,44.2,53.4,47.1,38.8,96,90,80,30.33,29.82,14,3,14,0.08
2013-11-23,52.5,44.0,34.3,50.6,28.6,13.3,93,56,40,29.91,29.79,23,10,26,0.00
2013-11-24,34.0,27.7,25.7,14.6,6.4,1.0,45,40,31,30.24,29.82,35,16,35,0.00
2013-11-25,34.3,28.4,23.5,17.6,10.8,5.5,51,47,42,30.39,30.21,20,6,20,0.00
2013-11-26,51.6,40.3,34.3,51.1,26.4,16.5,98,60,41,30.30,29.85,19,4,19,0.29
2013-11-27,61.5,51.2,38.8,61.0,49.3,30.9,98,93,72,29.85,29.23,40,12,40,1.22
2013-11-28,38.8,34.1,31.3,30.9,19.3,15.4,73,54,45,30.18,29.59,29,13,29,0.00
2013-11-29,36.7,32.7,29.3,20.9,16.0,10.9,61,50,45,30.62,30.36,15,3,15,0.00
2013-11-30,38.7,30.9,24.4,28.3,15.5,0.0,66,52,46,30.68,30.33,14,4,14,0.00
2013-12-1,51.3,44.8,38.7,46.2,40.1,28.3,95,84,67,30.33,29.94,13,3,13,0.00
2013-12-2,46.8,39.6,34.5,41.9,37.1,32.0,97,91,80,29.94,29.82,8,1,8,0.00
2013-12-3,46.0,41.2,36.5,40.7,37.7,32.8,98,87,74,29.94,29.82,13,3,13,0.00
2013-12-4,46.9,41.5,35.4,39.9,33.2,28.6,90,73,55,30.09,29.94,7,2,7,0.00
2013-12-5,61.5,55.2,41.7,58.1,52.9,38.4,97,92,86,30.12,29.85,13,4,13,0.00
2013-12-6,58.6,50.8,42.6,58.1,49.1,37.2,98,94,81,30.00,29.82,17,5,17,0.08
2013-12-7,40.8,36.9,32.7,37.5,27.1,16.2,97,70,49,30.41,30.03,19,9,19,0.25
2013-12-8,35.1,32.6,30.0,29.1,17.7,15.3,85,54,51,30.50,30.30,17,6,17,0.00
2013-12-9,48.4,39.4,30.9,47.8,38.4,28.2,98,96,86,30.33,29.82,15,5,15,0.24
2013-12-10,38.8,35.4,32.9,37.1,31.6,15.9,98,87,50,30.03,29.74,27,7,27,0.30
2013-12-11,34.9,31.3,27.1,18.0,14.8,11.3,55,50,46,30.21,30.00,25,8,25,0.00
2013-12-12,31.1,25.9,21.9,16.0,8.8,3.8,53,48,44,30.27,30.06,20,7,20,0.00
2013-12-13,34.3,29.9,21.7,16.1,11.7,3.7,55,46,43,30.27,30.03,26,10,26,0.00
2013-12-14,38.3,26.5,21.2,37.8,18.8,10.1,98,74,51,30.44,29.85,22,5,22,0.08
2013-12-15,45.7,37.3,32.9,45.2,32.5,21.1,98,84,56,29.85,29.35,22,9,22,1.41
2013-12-16,34.5,30.0,25.7,21.5,13.2,7.8,60,49,44,30.18,29.74,26,9,26,0.00
2013-12-17,34.9,26.7,19.8,34.1,19.9,5.7,97,77,46,30.18,29.82,20,4,20,0.21
2013-12-18,33.8,29.4,23.2,23.5,20.9,17.3,89,71,56,30.12,29.82,22,8,22,0.04
2013-12-19,44.4,36.0,27.0,31.3,23.5,0.0,73,61,49,30.12,29.94,19,5,19,0.16
2013-12-20,51.4,42.2,32.0,45.8,34.3,26.4,92,74,51,30.06,29.91,11,2,11,0.00
2013-12-21,59.5,51.8,43.3,55.4,48.4,42.0,97,88,73,29.97,29.82,13,3,13,0.00
2013-12-22,61.3,58.9,55.8,58.8,56.1,50.9,98,91,77,29.91,29.79,18,5,18,0.00
2013-12-23,59.0,53.4,40.3,55.6,51.9,0.0,98,95,83,30.03,29.82,20,3,20,0.54
2013-12-24,40.3,36.0,30.0,35.5,21.3,11.2,83,55,43,30.21,29.97,20,10,20,0.00
2013-12-25,30.0,24.4,21.2,13.1,7.1,3.7,58,47,43,30.47,30.21,20,6,20,0.00
2013-12-26,30.9,28.3,25.9,22.8,18.5,13.1,72,66,58,30.39,30.24,3,0,3,0.00
2013-12-27,39.4,35.4,32.5,24.9,21.2,18.6,70,56,46,30.30,30.18,18,8,18,0.00
2013-12-28,51.6,40.9,29.7,32.6,26.9,18.5,79,59,40,30.21,30.00,15,6,15,0.00
2013-12-29,54.7,43.9,39.4,54.1,37.9,27.5,98,81,57,30.03,29.29,22,5,22,1.37
2013-12-30,44.2,36.1,21.6,40.0,26.7,4.8,96,70,45,30.12,29.59,20,9,20,0.00
2013-12-31,32.2,24.9,18.7,18.7,9.6,3.6,59,52,46,30.18,30.00,23,6,23,0.00
2014-1-1,31.3,28.2,23.7,17.0,11.9,7.1,59,50,46,30.33,30.18,18,6,18,0.00
2014-1-2,31.1,25.1,16.3,27.3,20.8,12.6,92,84,53,30.21,29.59,21,7,21,0.00